GFSNE_700_spd_105.txt.gz
Wind_Speed
47 44 38 32 38 38 39 32 25 29 29 26 27 26 28 31 31 35 35 36 40 37 37 38 41 38 36 39 43 42 43 43 47 51 53 50 50 50
37 43 38 39 40 41 29 29 31 32 36 31 30 30 33 34 35 35 38 42 42 39 42 41 42 41 47 46 46 46 51 51 50 50 57 56 59 57
32 38 41 38 32 27 26 29 31 33 38 35 35 36 36 36 37 39 39 36 44 45 44 48 47 47 51 52 51 54 52 55 51 61 60 59 59 66
33 38 36 37 32 34 32 34 35 35 37 39 37 38 38 39 38 40 44 44 45 51 48 49 50 51 57 53 51 49 49 51 53 53 55 59 62 64
29 36 35 40 35 26 33 35 40 37 37 39 38 40 42 41 44 46 49 44 53 53 53 53 55 58 52 54 52 50 53 55 58 59 58 60 65 66
32 37 36 35 33 37 39 39 37 38 39 39 40 43 46 46 48 50 51 56 56 51 54 56 55 51 51 52 54 59 62 62 62 62 62 66 68 70
32 34 35 36 36 37 38 38 39 38 40 42 43 47 49 51 55 59 49 56 50 54 53 51 48 52 56 56 57 60 61 61 61 63 65 67 69 71
34 35 38 40 40 39 40 40 44 45 46 49 49 52 55 56 62 56 54 51 54 58 53 50 53 54 55 55 58 59 61 64 65 67 68 70 72 74
36 38 39 40 40 42 44 44 45 50 47 50 54 53 56 62 59 59 50 49 52 52 52 51 54 56 56 58 61 62 63 65 67 69 70 71 73 75
39 41 42 44 44 44 46 51 55 51 60 59 61 57 64 56 46 42 49 47 47 51 53 55 56 58 58 58 59 59 59 61 62 64 65 66 67 68
39 39 40 45 44 53 55 55 54 58 61 62 57 54 42 39 41 44 45 46 45 47 51 55 58 60 60 59 57 56 58 60 60 59 59 59 60 60
43 45 51 45 46 52 59 64 59 56 47 35 31 33 37 40 40 43 44 45 47 49 52 54 56 59 64 63 61 56 56 56 56 55 54 53 52 53
44 47 52 57 62 68 60 46 26 23 27 30 32 34 35 36 38 41 44 45 46 49 52 55 56 58 59 64 65 61 60 60 58 56 54 52 51 49
50 53 62 60 52 39 30 22 26 30 32 34 33 33 34 36 39 41 42 43 45 48 50 53 56 58 60 62 63 61 56 55 53 53 54 52 49 46
50 48 42 27 16 17 23 27 29 31 29 29 31 33 35 37 36 38 40 41 44 46 49 51 53 54 55 56 58 54 52 49 50 52 51 50 47 43
35 25 16 18 21 23 23 24 24 24 26 28 31 32 33 35 36 36 37 38 39 40 45 47 48 49 50 48 47 46 45 49 47 46 45 40 38 37
15 17 20 22 23 24 23 22 23 24 25 27 29 32 32 34 35 37 38 40 42 44 43 42 43 42 42 42 41 41 42 43 42 42 38 36 33 31
17 20 19 19 18 19 20 21 23 24 25 27 30 30 31 32 34 35 37 39 40 40 42 44 44 41 36 35 38 37 38 39 38 35 30 33 24 20
18 14 15 15 16 18 20 21 22 24 26 27 28 29 30 30 32 34 35 35 35 36 38 41 42 42 40 35 30 36 39 39 34 22 23 20 19 17
11 14 16 17 18 18 20 22 24 25 26 27 27 27 29 31 31 31 32 33 34 34 35 38 38 37 38 37 36 26 29 34 22 17 16 18 20 22
13 14 15 16 17 19 21 23 24 25 26 26 26 27 28 28 29 29 30 30 30 32 35 37 36 34 33 34 28 23 21 23 20 19 19 19 23 25
12 13 15 17 19 20 22 23 24 24 25 26 26 26 25 25 26 26 27 27 28 30 31 34 32 29 30 28 22 21 17 16 17 17 18 22 21 19
13 14 16 18 20 21 22 22 24 26 26 25 23 23 23 24 24 25 26 26 26 28 29 30 27 25 26 20 18 15 17 19 21 20 19 16 13 11

GFSNE_700_spd_108.txt.gz
Wind_Speed
38 40 43 44 38 39 33 33 37 41 38 24 22 22 26 30 30 33 35 35 36 38 37 41 38 37 39 40 42 44 45 46 48 49 51 50 53 52
49 51 48 46 44 40 37 35 34 37 31 27 25 27 28 32 33 35 38 39 40 42 41 42 41 42 40 46 49 48 50 48 55 58 56 54 58 59
39 42 43 32 42 43 36 34 37 26 29 26 28 29 33 35 38 38 40 43 41 44 42 46 46 49 53 51 53 50 50 55 60 56 55 54 52 54
32 47 39 29 34 42 38 39 37 28 34 32 33 36 39 40 39 39 40 45 46 43 44 46 48 53 56 55 53 55 59 55 51 52 52 53 56 60
28 36 38 36 31 37 45 34 36 32 36 38 39 43 42 43 42 41 43 45 50 48 53 53 54 54 57 53 57 57 57 55 54 58 60 62 63 65
30 28 33 35 35 38 36 39 40 36 38 40 46 45 45 44 39 42 46 51 49 53 59 61 57 62 57 58 58 57 57 60 59 60 61 63 65 66
33 30 30 34 37 40 43 42 41 41 43 44 44 44 46 45 46 50 53 51 57 57 59 56 61 55 54 57 58 59 58 60 62 63 65 67 68 69
31 32 36 39 40 45 46 42 44 45 46 47 44 49 46 50 54 54 56 58 60 55 57 55 50 53 55 55 55 56 59 61 64 67 68 70 71 72
32 35 37 37 38 40 42 45 46 45 43 45 45 52 50 51 56 61 64 58 52 48 45 46 49 51 52 52 53 56 58 61 63 66 67 68 70 70
35 37 39 40 42 43 44 45 46 45 44 50 52 56 59 60 58 55 48 45 44 46 46 47 49 50 51 51 52 54 56 58 61 63 65 66 66 67
40 41 41 42 43 44 45 42 42 45 53 55 57 58 60 51 39 37 39 41 43 43 44 47 50 53 54 52 50 51 55 59 61 61 60 60 58 58
41 43 42 40 40 45 43 48 50 55 57 55 44 36 31 32 34 36 38 38 40 44 45 46 48 52 56 57 55 54 56 56 55 54 53 50 48 50
38 41 40 43 46 47 54 54 59 56 37 25 26 28 30 31 31 31 33 35 37 40 43 45 47 49 51 56 57 56 58 57 55 54 52 50 50 51
42 43 43 45 55 58 60 49 26 19 23 26 27 27 27 29 31 32 34 35 37 39 42 45 46 48 51 55 56 55 54 52 53 51 50 48 47 47
47 50 54 50 51 35 18 17 21 25 26 24 22 24 26 27 29 31 33 36 38 39 41 42 44 46 48 50 53 51 54 51 47 43 42 44 43 41
48 52 42 40 31 23 22 24 23 22 19 20 22 24 25 27 29 30 31 31 33 36 40 41 42 44 44 41 42 45 45 45 37 37 39 34 30 30
36 27 20 19 21 21 20 18 17 18 19 20 22 24 25 26 27 28 30 31 33 34 34 35 37 39 36 33 34 37 36 30 29 29 25 22 24 27
19 19 19 19 17 14 13 13 15 17 18 20 21 22 23 25 27 28 29 30 32 35 37 39 39 35 24 22 29 31 26 24 23 22 25 23 24 27
17 17 13 8 8 11 13 14 16 17 18 19 21 21 23 25 26 26 27 29 31 33 35 37 37 33 27 23 22 26 22 22 21 20 20 22 23 23
8 4 5 9 12 12 14 15 16 17 18 19 21 22 23 24 25 26 26 27 28 28 29 31 33 29 27 24 21 22 23 19 16 15 17 18 20 20
3 6 9 11 11 13 14 15 16 17 19 21 21 22 23 24 24 25 25 25 25 24 25 28 30 27 24 21 18 15 18 17 17 16 15 17 18 17
7 9 8 9 11 13 14 16 17 19 20 20 21 22 23 23 22 23 22 22 22 22 22 26 28 23 22 18 14 13 15 15 13 13 13 16 17 17
7 8 9 11 13 14 16 17 19 20 21 22 22 22 22 22 22 22 21 21 20 20 21 23 25 21 19 14 7 8 8 9 9 8 10 12 13 16

GFSNE_700_spd_114.txt.gz
Wind_Speed
36 33 33 33 34 34 32 28 30 30 33 35 32 32 37 36 27 39 38 36 35 37 38 39 39 39 40 43 44 46 48 48 45 44 48 49 51 53
36 37 39 39 41 38 36 36 33 34 36 37 38 31 40 32 29 32 40 40 39 36 35 38 39 41 44 47 47 46 43 46 49 51 53 57 59 55
40 41 42 40 44 45 43 46 42 43 37 41 44 43 39 37 27 28 31 34 37 39 39 38 43 46 46 46 43 44 48 50 53 53 59 59 62 59
38 41 45 45 50 55 56 48 46 50 49 45 51 41 40 39 33 32 27 35 35 38 44 48 48 48 52 47 47 53 54 57 61 60 64 64 64 62
45 37 30 38 45 46 41 44 42 46 48 38 35 41 41 41 38 40 40 39 41 47 48 47 47 50 50 55 55 58 60 61 64 63 63 61 60 59
22 31 30 28 38 43 47 44 42 40 39 33 34 40 45 41 46 42 37 40 45 46 49 51 54 56 56 57 59 59 60 61 58 57 58 58 58 59
22 30 30 21 23 27 21 30 36 40 38 33 35 43 39 42 46 42 40 52 49 51 55 56 59 61 60 57 58 57 54 53 53 54 55 56 58 59
18 25 32 30 23 26 27 33 31 35 37 38 35 40 42 49 45 45 50 48 53 55 57 62 60 55 54 53 53 51 49 48 49 51 53 55 58 59
27 20 21 27 30 33 32 35 31 32 36 38 42 44 48 51 52 54 55 54 56 57 58 56 51 48 46 45 45 45 44 47 48 50 53 55 57 59
29 27 29 28 32 35 35 33 34 33 35 39 41 44 45 46 48 51 53 55 56 52 46 43 41 40 40 40 39 40 43 45 48 50 51 53 55 54
29 31 31 33 33 38 36 33 35 39 38 40 42 44 47 50 51 55 56 49 42 39 37 36 35 34 34 35 37 39 41 44 46 47 48 49 50 47
31 33 35 37 35 36 39 37 36 39 42 42 45 49 52 54 55 44 37 35 34 34 31 29 31 33 33 32 36 38 40 41 41 41 39 38 33 28
34 36 37 37 38 36 37 38 41 45 46 49 51 53 50 41 33 31 29 29 26 25 27 29 31 33 34 36 35 38 39 39 37 33 28 22 18 19
35 36 36 36 35 38 44 46 48 50 51 49 46 35 28 26 26 27 24 22 23 24 25 27 30 32 34 33 35 35 35 33 31 23 16 14 15 19
36 38 33 36 43 44 45 49 49 51 42 28 25 25 24 24 17 15 17 20 21 22 24 25 28 31 32 32 32 33 31 24 17 13 11 11 15 20
36 41 44 45 45 49 47 43 37 25 24 23 22 20 17 13 15 17 19 20 20 21 22 24 27 28 30 30 28 27 24 17 12 8 8 13 18 21
45 41 44 42 41 38 34 26 23 22 20 20 15 10 12 14 15 17 19 20 20 21 22 24 25 26 26 26 22 20 17 9 10 8 10 15 17 20
28 29 32 28 26 24 23 21 21 21 15 8 8 11 14 15 16 17 19 20 20 21 21 21 21 22 24 24 19 14 15 10 9 9 11 15 17 22
17 21 18 19 20 19 17 17 17 12 7 7 10 12 14 16 16 18 18 19 20 20 19 18 18 19 17 17 17 9 12 9 8 9 13 17 22 26
16 16 18 18 17 18 15 9 5 4 9 10 13 14 14 15 17 17 19 19 20 20 19 19 18 18 17 14 10 10 9 10 9 11 14 20 24 26
13 15 16 16 13 9 5 4 7 10 12 13 13 14 15 16 17 17 18 18 19 19 19 18 17 17 17 15 11 10 9 10 10 11 14 19 24 24
15 15 13 10 7 5 7 10 12 12 13 14 13 14 15 16 17 17 18 18 18 18 18 18 17 18 18 16 13 13 13 11 11 11 14 19 22 22
14 9 6 5 5 9 12 12 12 13 13 13 14 15 16 16 17 18 18 18 18 18 17 17 18 18 18 18 15 14 15 12 10 11 13 16 18 18

GFSNE_700_spd_117.txt.gz
Wind_Speed
51 46 36 34 35 34 33 30 30 28 26 30 34 35 31 35 34 29 34 35 30 34 36 39 40 40 41 40 43 42 43 46 46 49 48 44 46 48
47 42 33 33 36 37 34 34 32 30 28 32 36 38 37 37 34 32 34 31 32 30 42 43 43 42 42 41 42 44 47 49 49 48 47 50 51 53
48 36 36 38 38 38 37 35 34 33 33 40 44 34 32 39 37 36 41 35 30 29 28 36 41 41 45 45 48 48 45 45 49 51 54 54 56 59
53 37 41 41 40 36 39 39 39 38 38 49 47 43 43 40 42 44 41 36 32 30 33 40 40 40 43 46 46 47 51 51 52 52 56 54 61 62
47 44 40 46 41 41 39 37 43 46 49 49 54 47 45 47 44 33 40 39 43 40 40 35 40 45 44 48 50 51 54 54 58 57 60 60 60 58
30 36 40 37 33 39 39 41 42 33 32 31 36 41 42 48 41 43 42 42 47 47 43 44 47 47 46 54 54 56 57 58 55 55 55 53 52 52
33 36 38 40 39 31 33 32 33 33 39 39 44 41 44 39 34 37 40 45 45 49 45 48 48 51 57 56 55 58 53 50 49 47 47 47 47 48
20 21 23 23 31 24 27 28 26 28 28 33 40 43 42 44 45 41 39 43 47 48 53 55 56 54 57 55 54 49 46 43 42 43 44 46 47 49
27 21 22 28 32 31 27 26 27 26 29 33 36 35 36 34 35 39 43 48 53 53 54 55 56 55 50 44 43 40 39 39 41 44 45 46 48 49
33 28 21 21 24 30 34 36 35 32 35 34 36 36 36 41 43 47 50 52 53 54 57 56 50 44 41 38 34 34 37 39 41 42 43 44 45 44
34 31 33 30 32 31 33 33 35 38 37 36 37 38 39 41 44 47 47 49 57 55 47 42 38 35 32 31 34 35 34 36 38 40 41 41 40 39
26 30 30 33 32 33 33 33 35 40 42 40 41 41 44 48 51 55 56 56 45 39 38 34 30 27 26 27 30 31 33 35 36 37 37 36 32 25
28 32 35 35 35 36 38 40 42 43 45 46 45 49 49 50 52 50 40 38 36 31 27 25 23 24 25 26 28 30 30 31 32 31 28 24 18 15
31 33 35 37 38 40 42 43 45 45 48 49 52 50 46 46 43 38 32 29 27 21 21 22 24 25 25 26 28 29 29 29 27 23 17 12 11 15
34 39 42 42 43 45 46 45 49 51 53 51 49 45 39 35 31 28 26 19 17 18 21 24 23 25 25 26 27 27 25 25 22 16 10 10 13 18
37 37 39 42 46 51 52 52 51 47 44 32 29 27 25 24 24 21 15 14 16 19 21 23 23 24 25 25 25 26 24 19 15 11 9 11 16 19
45 48 47 45 47 44 35 37 39 35 28 25 23 22 22 20 16 11 13 17 18 20 21 21 22 23 24 24 23 24 21 17 12 12 11 13 17 21
32 34 28 27 28 29 29 27 26 26 23 22 22 21 17 10 9 13 16 17 18 19 20 21 22 23 24 23 22 21 20 15 11 11 12 14 17 22
23 20 21 21 22 24 21 20 19 19 20 18 13 8 6 11 14 15 16 17 18 19 20 21 21 21 22 22 22 18 18 15 12 12 11 15 18 22
21 18 18 17 18 17 17 17 16 16 14 10 9 8 11 14 15 16 17 18 19 20 21 21 21 21 21 20 18 19 15 15 13 13 13 15 17 21
12 11 12 12 12 13 15 14 13 10 6 6 10 12 13 15 16 17 18 19 21 21 21 22 21 21 20 19 17 16 14 15 14 13 13 15 16 19
7 9 10 12 13 13 13 9 5 5 8 11 13 15 16 17 18 19 20 20 21 22 22 23 22 21 20 19 18 16 15 14 15 14 14 15 16 18
9 12 13 13 12 8 5 4 7 10 12 14 15 16 17 18 19 20 21 21 22 23 23 23 22 22 21 20 19 16 15 15 17 16 15 14 14 16

GFSNE_700_spd_120.txt.gz
Wind_Speed
49 45 46 41 44 34 31 28 27 28 23 25 31 34 34 32 30 26 26 28 32 30 33 30 33 36 38 38 40 41 43 42 43 43 45 46 46 46
51 52 49 47 44 36 36 36 30 29 27 30 32 31 31 30 29 32 35 38 37 34 31 31 34 33 40 42 44 45 44 44 43 46 45 47 48 49
41 58 51 45 41 42 39 36 33 33 32 29 29 29 33 36 38 38 42 44 41 33 40 35 32 34 34 37 41 38 40 43 43 45 49 49 49 51
37 53 48 47 43 38 38 37 38 33 32 32 33 37 38 40 42 45 40 38 39 44 32 32 36 35 35 35 36 42 44 45 45 49 48 52 54 55
37 35 46 43 44 38 32 37 34 37 38 40 37 37 42 45 47 48 49 44 43 36 33 37 39 40 41 40 44 45 46 48 52 54 54 53 49 48
25 32 43 42 37 34 35 38 36 35 39 41 45 49 50 46 47 35 36 37 39 36 39 40 40 42 43 45 46 49 49 48 53 54 49 45 42 41
30 40 32 43 35 39 39 31 40 39 43 46 40 30 31 34 33 34 35 38 36 36 38 39 41 45 46 48 51 49 50 52 50 44 40 38 38 40
30 32 38 35 38 39 37 40 43 47 38 34 36 32 27 28 33 40 46 44 42 39 38 40 44 49 51 51 53 55 51 44 40 37 35 37 39 39
16 23 25 30 31 33 40 46 44 37 32 29 29 25 27 37 43 39 35 37 38 39 41 45 48 51 53 56 52 42 41 40 35 33 34 35 36 38
20 22 20 23 21 23 25 27 31 28 29 28 32 33 32 30 33 35 36 38 42 43 46 50 51 54 54 44 39 37 33 29 30 32 34 35 36 36
25 27 25 22 26 19 24 25 28 34 36 38 38 35 38 34 34 36 40 42 45 47 51 55 52 44 38 36 32 25 24 28 31 32 33 33 34 33
26 29 30 34 31 31 30 29 32 32 35 32 38 36 42 40 41 46 45 49 53 52 48 43 37 36 31 25 22 24 27 27 29 30 31 31 30 27
30 33 34 30 32 36 38 34 34 39 38 37 40 40 43 47 51 48 49 52 42 35 32 32 31 27 20 18 22 25 26 27 27 28 29 27 25 21
24 26 27 28 33 34 35 35 35 36 39 43 43 49 49 48 52 48 39 35 32 30 27 22 19 17 16 20 23 24 24 24 24 25 25 23 19 17
29 30 30 32 30 31 34 37 39 41 45 47 48 46 49 47 39 33 30 28 26 23 17 14 14 17 19 20 22 23 22 24 23 21 19 17 15 15
31 31 33 33 37 37 39 40 41 45 45 41 38 36 33 29 26 25 24 21 18 13 12 14 18 20 21 21 21 22 22 21 20 19 16 14 13 16
32 31 36 41 40 40 41 42 40 34 29 30 28 25 23 21 21 19 16 13 9 11 14 18 20 20 21 21 22 22 21 19 19 16 13 12 14 16
27 28 22 23 23 22 24 21 22 23 24 22 19 17 17 17 15 12 9 8 11 15 17 18 19 21 21 21 22 22 21 19 17 15 13 11 13 16
21 18 15 17 21 19 21 22 21 18 15 15 16 16 14 11 10 7 10 13 14 17 19 19 19 20 20 21 23 21 20 20 18 14 13 14 14 16
15 13 13 15 15 15 14 13 11 11 13 14 14 12 9 6 7 9 12 16 17 19 20 20 20 21 21 20 20 24 21 19 18 15 15 15 15 15
9 7 6 5 6 6 8 9 10 12 13 11 8 6 6 8 10 14 16 17 18 19 20 21 21 21 21 21 21 21 22 19 18 17 17 16 14 15
2 2 3 4 5 7 8 9 11 11 8 6 6 6 9 12 14 16 17 18 19 20 21 22 22 22 22 21 21 20 20 19 19 17 17 17 15 14
3 4 5 6 7 8 9 9 8 6 5 6 9 11 13 14 16 17 18 20 21 21 21 22 23 22 22 22 22 20 20 19 17 15 15 17 14 13

GFSNE_700_spd_123.txt.gz
Wind_Speed
40 45 44 44 43 40 37 33 25 29 28 30 30 32 31 31 31 32 28 27 31 26 30 31 33 33 24 31 36 35 40 41 42 43 44 44 42 42
42 42 44 46 48 41 39 33 33 28 27 27 30 28 29 29 32 32 30 29 30 32 37 34 36 37 37 33 35 32 32 37 41 42 38 41 45 43
37 37 39 49 46 43 44 40 36 35 28 33 25 23 28 29 32 32 31 30 34 37 36 39 42 42 35 30 31 32 33 34 33 38 40 43 45 48
46 46 43 47 46 51 46 47 41 33 35 34 35 30 25 26 29 32 34 35 37 38 40 44 38 36 30 33 34 36 38 37 42 40 44 47 47 52
37 38 39 40 44 53 57 41 40 38 40 38 30 29 27 29 36 36 40 39 40 45 44 37 34 35 37 40 36 39 37 42 42 45 46 47 54 55
36 37 38 40 40 56 47 38 44 42 43 36 32 34 34 36 36 38 44 42 47 42 32 32 34 36 35 38 41 42 43 46 46 47 53 57 52 45
28 20 30 29 43 45 46 44 37 37 33 34 36 37 37 37 40 46 36 35 34 31 34 37 40 39 38 41 42 44 46 49 50 52 54 45 41 38
24 21 23 29 30 44 42 37 38 38 33 35 37 37 36 41 40 29 28 31 36 37 40 35 41 39 39 42 46 48 51 51 50 49 41 36 32 29
18 16 20 29 26 30 31 36 36 35 33 37 38 40 44 40 29 25 26 35 40 40 38 38 43 43 46 46 50 53 48 48 43 39 32 26 28 31
11 23 23 21 31 32 33 39 35 44 46 44 46 47 40 35 28 31 37 31 35 39 41 45 45 47 51 50 48 48 45 40 37 31 25 26 29 30
14 13 20 20 23 27 19 26 34 34 22 29 32 32 32 33 34 33 38 42 41 41 44 49 52 47 50 47 44 40 37 34 24 21 25 28 29 29
19 18 20 24 20 23 22 24 22 27 25 23 27 34 36 34 34 41 38 46 45 45 49 50 45 44 42 39 36 33 30 22 20 23 26 26 26 25
23 24 23 24 25 30 30 28 29 27 28 29 29 33 32 36 37 39 43 43 46 49 44 42 40 35 33 34 29 20 18 20 22 23 24 24 24 23
25 26 28 28 27 28 29 29 31 32 31 36 34 36 38 38 41 46 46 44 42 38 36 33 30 28 25 20 15 16 20 22 23 24 24 24 22 20
23 22 25 31 35 32 30 34 36 35 33 34 38 38 41 42 41 38 35 33 31 30 29 27 26 22 15 13 17 19 23 23 22 23 23 22 21 18
27 26 26 27 28 31 29 34 37 36 38 39 38 34 32 29 27 28 27 26 24 24 24 22 15 11 11 15 19 19 20 21 22 22 21 20 19 19
30 30 29 31 30 29 30 33 34 35 32 32 28 26 24 23 22 20 19 19 19 17 12 9 11 13 15 17 19 19 20 21 21 20 19 18 19 19
20 15 24 27 22 22 21 22 21 22 21 21 20 19 19 17 16 16 16 15 12 9 8 12 14 16 17 18 19 20 20 20 20 20 18 17 19 18
12 11 13 15 16 17 19 19 19 18 16 15 13 12 13 13 12 12 11 9 8 8 11 15 17 18 19 20 22 21 22 21 20 19 18 16 18 19
16 16 13 12 15 16 14 13 12 11 11 10 9 9 10 10 10 9 8 9 11 12 14 16 17 18 19 20 23 25 22 21 20 19 18 17 18 19
10 10 10 10 10 9 9 8 9 9 8 8 9 9 9 9 9 9 8 11 14 15 16 17 19 20 21 21 21 22 24 23 20 19 19 17 17 18
5 6 6 6 7 7 7 7 6 6 7 8 8 9 8 8 9 11 12 14 16 16 17 19 20 21 22 22 22 21 21 22 22 19 19 18 18 17
4 3 3 3 3 4 5 5 6 7 8 9 8 9 9 11 11 12 14 15 16 18 19 20 21 22 23 22 22 22 22 20 19 19 21 19 17 17